OK,36,59,677,36,2014-10-01T01:40:00,0,28072004,190637
OK,36,59,677,36,2014-10-01T01:45:00,0,28072447,190637
OK,36,59,677,36,2014-10-01T01:50:00,0,28072896,190637
OK,36,59,677,36,2014-10-01T01:55:00,0,28073343,190637
OK,36,59,677,36,2014-10-01T02:05:00,0,28074109,190637
OK,28,76,677,28,2014-10-01T02:10:00,1,28074558,190637
OK,28,76,677,28,2014-10-01T02:15:00,1,28074998,190637
OK,28,76,677,28,2014-10-01T02:20:00,0,28075447,190637
OK,28,76,677,28,2014-10-01T02:25:00,0,28075896,190637
OK,28,76,677,28,2014-10-01T02:30:00,0,28076279,190637
OK,28,76,677,28,2014-10-01T02:35:00,0,28076728,190637
OK,28,76,677,28,2014-10-01T02:40:00,0,28077177,190637
OK,28,76,677,28,2014-10-01T02:45:00,0,28077626,190637
OK,26,81,677,26,2014-10-01T02:50:00,3,28078029,190637
OK,30,71,677,30,2014-10-01T02:55:00,2,28078478,190637
OK,25,85,677,25,2014-10-01T03:00:00,0,28078923,190637
OK,25,85,677,25,2014-10-01T03:05:00,0,28079371,190637
OK,28,76,677,28,2014-10-01T03:10:00,1,28079814,190637
OK,28,76,677,28,2014-10-01T03:15:00,1,28080263,190637
OK,28,76,677,28,2014-10-01T03:20:00,0,28080597,190637
OK,28,76,677,28,2014-10-01T03:25:00,0,28081046,190637
OK,29,73,677,29,2014-10-01T03:30:00,4,28081495,190637
OK,31,68,677,31,2014-10-01T03:35:00,4,28081942,190637
OK,31,68,677,31,2014-10-01T03:40:00,5,28082391,190637
OK,29,73,677,29,2014-10-01T03:45:00,4,28082824,190637
OK,35,60,677,35,2014-10-01T03:50:00,6,28083256,190637
OK,35,60,677,35,2014-10-01T03:55:00,5,28083705,190637
OK,31,68,677,31,2014-10-01T04:00:00,3,28084154,190637
OK,28,76,677,28,2014-10-01T04:05:00,7,28084595,190637
OK,28,76,677,28,2014-10-01T04:10:00,11,28085020,190637
OK,31,68,677,31,2014-10-01T04:15:00,7,28085469,190637
OK,28,76,677,28,2014-10-01T04:20:00,11,28085914,190637
OK,27,78,677,27,2014-10-01T04:25:00,16,28086363,190637
OK,28,76,677,28,2014-10-01T04:30:00,13,28086805,190637
OK,33,64,677,33,2014-10-01T04:35:00,15,28087254,190637
OK,33,64,677,33,2014-10-01T04:40:00,17,28087699,190637
OK,34,62,677,34,2014-10-01T04:45:00,14,28088148,190637
OK,34,62,677,34,2014-10-01T04:50:00,17,28088572,190637
OK,42,50,677,42,2014-10-01T04:55:00,16,28089021,190637
OK,48,44,677,48,2014-10-01T05:00:00,17,28089451,190637
OK,46,46,677,46,2014-10-01T05:05:00,22,28089900,190637
OK,46,46,677,46,2014-10-01T05:10:00,24,28090349,190637
OK,46,46,677,46,2014-10-01T05:15:00,25,28090693,190637
OK,44,48,677,44,2014-10-01T05:20:00,32,28091142,190637
OK,46,46,677,46,2014-10-01T05:25:00,35,28091591,190637
OK,47,45,677,47,2014-10-01T05:30:00,39,28092008,190637
OK,44,48,677,44,2014-10-01T05:35:00,34,28092457,190637
OK,53,40,677,53,2014-10-01T05:40:00,45,28092901,190637
OK,65,32,677,65,2014-10-01T05:45:00,53,28093342,190637
OK,80,26,677,80,2014-10-01T05:50:00,42,28093773,190637
OK,55,38,677,55,2014-10-01T05:55:00,34,28094222,190637
OK,49,43,677,49,2014-10-01T06:00:00,36,28094633,190637
OK,47,45,677,47,2014-10-01T06:05:00,50,28095078,190637
OK,47,45,677,47,2014-10-01T06:10:00,43,28095525,190637
OK,47,45,677,47,2014-10-01T06:15:00,31,28095974,190637
OK,50,42,677,50,2014-10-01T06:20:00,19,28096387,190637
OK,48,44,677,48,2014-10-01T06:25:00,27,28096836,190637
OK,43,49,677,43,2014-10-01T06:30:00,29,28097270,190637
OK,41,51,677,41,2014-10-01T06:35:00,27,28097719,190637
OK,44,48,677,44,2014-10-01T06:40:00,25,28098168,190637
OK,45,47,677,45,2014-10-01T06:45:00,27,28098605,190637
OK,42,50,677,42,2014-10-01T06:50:00,24,28099049,190637
OK,49,43,677,49,2014-10-01T06:55:00,13,28099497,190637
OK,51,41,677,51,2014-10-01T07:00:00,12,28099840,190637
OK,32,66,677,32,2014-10-01T07:10:00,13,28100596,190637
OK,32,66,677,32,2014-10-01T07:15:00,11,28101045,190637
OK,32,66,677,32,2014-10-01T07:20:00,16,28101416,190637
OK,33,64,677,33,2014-10-01T07:25:00,15,28101865,190637
OK,34,62,677,34,2014-10-01T07:30:00,12,28102301,190637
OK,34,62,677,34,2014-10-01T07:35:00,13,28102750,190637
OK,34,62,677,34,2014-10-01T07:40:00,13,28103177,190637
OK,34,62,677,34,2014-10-01T07:45:00,6,28103624,190637
OK,33,64,677,33,2014-10-01T07:50:00,9,28104069,190637
OK,35,60,677,35,2014-10-01T07:55:00,20,28104514,190637
OK,43,49,677,43,2014-10-01T08:00:00,15,28104955,190637
OK,32,66,677,32,2014-10-01T08:05:00,13,28105400,190637
OK,30,71,677,30,2014-10-01T08:10:00,12,28105840,190637
OK,35,60,677,35,2014-10-01T08:15:00,6,28106289,190637
OK,32,66,677,32,2014-10-01T08:20:00,10,28106726,190637
OK,33,64,677,33,2014-10-01T08:25:00,6,28107132,190637
OK,28,76,677,28,2014-10-01T08:30:00,2,28107564,190637
OK,32,66,677,32,2014-10-01T08:35:00,12,28108013,190637
OK,31,68,677,31,2014-10-01T08:40:00,12,28108452,190637
OK,31,68,677,31,2014-10-01T08:45:00,10,28108901,190637
OK,31,68,677,31,2014-10-01T08:50:00,13,28109329,190637
OK,30,71,677,30,2014-10-01T08:55:00,11,28109778,190637
OK,30,71,677,30,2014-10-01T09:00:00,16,28110121,190637
OK,30,71,677,30,2014-10-01T09:05:00,17,28110570,190637
OK,33,64,677,33,2014-10-01T09:10:00,15,28110993,190637
OK,33,64,677,33,2014-10-01T09:15:00,13,28111442,190637
OK,35,60,677,35,2014-10-01T09:20:00,9,28111871,190637
OK,27,78,677,27,2014-10-01T09:25:00,15,28112320,190637
OK,26,81,677,26,2014-10-01T09:30:00,10,28112661,190637
OK,32,66,677,32,2014-10-01T09:35:00,10,28113110,190637
OK,34,62,677,34,2014-10-01T09:40:00,5,28113534,190637
OK,37,57,677,37,2014-10-01T09:45:00,11,28113983,190637
OK,35,60,677,35,2014-10-01T09:50:00,9,28114415,190637
OK,35,60,677,35,2014-10-01T09:55:00,8,28114863,190637
OK,35,60,677,35,2014-10-01T10:00:00,13,28115218,190637
OK,32,66,677,32,2014-10-01T10:05:00,15,28115667,190637
OK,33,64,677,33,2014-10-01T10:10:00,13,28116079,190637
OK,33,64,677,33,2014-10-01T10:15:00,10,28116528,190637
OK,40,53,677,40,2014-10-01T10:20:00,6,28116936,190637
OK,47,45,677,47,2014-10-01T10:25:00,3,28117385,190637
OK,30,71,677,30,2014-10-01T10:30:00,14,28117810,190637
OK,30,71,677,30,2014-10-01T10:35:00,14,28118259,190637
OK,32,66,677,32,2014-10-01T10:40:00,12,28118704,190637
OK,31,68,677,31,2014-10-01T10:45:00,16,28119151,190637
OK,30,71,677,30,2014-10-01T10:50:00,15,28119595,190637
OK,29,73,677,29,2014-10-01T10:55:00,12,28120043,190637
OK,32,66,677,32,2014-10-01T11:00:00,5,28120491,190637
OK,32,66,677,32,2014-10-01T11:05:00,7,28120940,190637
OK,32,66,677,32,2014-10-01T11:10:00,13,28121323,190637
OK,30,71,677,30,2014-10-01T11:15:00,13,28121772,190637
OK,35,60,677,35,2014-10-01T11:20:00,11,28122210,190637
OK,44,48,677,44,2014-10-01T11:25:00,4,28122659,190637
OK,35,60,677,35,2014-10-01T11:30:00,0,28123100,190637
OK,36,59,677,36,2014-10-01T11:35:00,3,28123549,190637
OK,34,62,677,34,2014-10-01T11:40:00,10,28123981,190637
OK,65,32,677,65,2014-10-01T11:45:00,8,28124430,190637
OK,37,57,677,37,2014-10-01T11:50:00,8,28124832,190637
OK,32,66,677,32,2014-10-01T11:55:00,14,28125281,190637
OK,31,68,677,31,2014-10-01T12:00:00,16,28125710,190637
OK,29,73,677,29,2014-10-01T12:05:00,19,28126159,190637
OK,30,71,677,30,2014-10-01T12:10:00,13,28126511,190637
OK,34,62,677,34,2014-10-01T12:15:00,9,28126960,190637
OK,28,76,677,28,2014-10-01T12:20:00,11,28127409,190637
OK,27,78,677,27,2014-10-01T12:25:00,8,28127858,190637
OK,29,73,677,29,2014-10-01T12:30:00,12,28128286,190637
OK,33,64,677,33,2014-10-01T12:35:00,8,28128735,190637
OK,33,64,677,33,2014-10-01T12:40:00,7,28129170,190637
OK,30,71,677,30,2014-10-01T12:45:00,10,28129619,190637
OK,27,78,677,27,2014-10-01T12:50:00,10,28130053,190637
OK,31,68,677,31,2014-10-01T12:55:00,9,28130502,190637
OK,31,68,677,31,2014-10-01T13:00:00,9,28130930,190637
OK,31,68,677,31,2014-10-01T13:05:00,10,28131379,190637
OK,32,66,677,32,2014-10-01T13:10:00,12,28131816,190637
OK,31,68,677,31,2014-10-01T13:15:00,15,28132265,190637
OK,27,78,677,27,2014-10-01T13:20:00,11,28132703,190637
OK,31,68,677,31,2014-10-01T13:25:00,10,28133150,190637
OK,25,85,677,25,2014-10-01T13:30:00,7,28133588,190637
OK,43,49,677,43,2014-10-01T13:35:00,9,28134037,190637
OK,44,48,677,44,2014-10-01T13:40:00,8,28134476,190637
OK,47,45,677,47,2014-10-01T13:45:00,9,28134925,190637
OK,47,45,677,47,2014-10-01T13:50:00,9,28135344,190637
OK,52,40,677,52,2014-10-01T13:55:00,9,28135793,190637
OK,52,40,677,52,2014-10-01T14:00:00,13,28136230,190637
OK,46,46,677,46,2014-10-01T14:05:00,7,28136679,190637
OK,46,46,677,46,2014-10-01T14:10:00,10,28137119,190637
OK,42,50,677,42,2014-10-01T14:15:00,5,28137568,190637
OK,42,50,677,42,2014-10-01T14:20:00,13,28138002,190637
OK,44,48,677,44,2014-10-01T14:25:00,19,28138451,190637
OK,45,47,677,45,2014-10-01T14:30:00,13,28138879,190637
OK,50,42,677,50,2014-10-01T14:35:00,11,28139328,190637
OK,46,46,677,46,2014-10-01T14:40:00,17,28139739,190637
OK,46,46,677,46,2014-10-01T14:45:00,18,28140188,190637
OK,46,46,677,46,2014-10-01T14:50:00,14,28140630,190637
OK,49,43,677,49,2014-10-01T14:55:00,13,28141079,190637
OK,45,47,677,45,2014-10-01T15:00:00,15,28141505,190637
OK,49,43,677,49,2014-10-01T15:05:00,11,28141954,190637
OK,47,45,677,47,2014-10-01T15:10:00,16,28142382,190637
OK,41,51,677,41,2014-10-01T15:15:00,10,28142831,190637
OK,48,44,677,48,2014-10-01T15:20:00,6,28143258,190637
OK,35,60,677,35,2014-10-01T15:25:00,8,28143707,190637
OK,46,46,677,46,2014-10-01T15:30:00,11,28144155,190637
OK,50,42,677,50,2014-10-01T15:35:00,22,28144604,190637
OK,47,45,677,47,2014-10-01T15:40:00,20,28145025,190637
OK,35,60,677,35,2014-10-01T15:45:00,12,28145439,190637
OK,44,48,677,44,2014-10-01T15:50:00,12,28145888,190637
OK,52,40,677,52,2014-10-01T15:55:00,8,28146337,190637
OK,47,45,677,47,2014-10-01T16:00:00,9,28146786,190637
OK,45,47,677,45,2014-10-01T16:05:00,13,28147194,190637
OK,51,41,677,51,2014-10-01T16:10:00,9,28147638,190637
OK,42,50,677,42,2014-10-01T16:15:00,12,28148087,190637
OK,46,46,677,46,2014-10-01T16:20:00,15,28148488,190637
OK,47,45,677,47,2014-10-01T16:25:00,11,28148937,190637
OK,47,45,677,47,2014-10-01T16:30:00,9,28149376,190637
OK,47,45,677,47,2014-10-01T16:35:00,8,28149825,190637
OK,32,66,677,32,2014-10-01T16:40:00,13,28150251,190637
OK,32,66,677,32,2014-10-01T16:45:00,11,28150700,190637
OK,30,71,677,30,2014-10-01T16:50:00,5,28151118,190637
OK,31,68,677,31,2014-10-01T16:55:00,4,28151567,190637
OK,43,49,677,43,2014-10-01T17:05:00,0,28152016,190637
OK,29,73,677,29,2014-10-01T17:10:00,6,28152465,190637
OK,30,71,677,30,2014-10-01T17:15:00,7,28152911,190637
OK,29,73,677,29,2014-10-01T17:20:00,10,28153358,190637
OK,29,73,677,29,2014-10-01T17:25:00,16,28153807,190637
OK,29,73,677,29,2014-10-01T17:30:00,15,28154217,190637
OK,27,78,677,27,2014-10-01T17:35:00,6,28154666,190637
OK,25,85,677,25,2014-10-01T17:40:00,5,28155108,190637
OK,30,71,677,30,2014-10-01T17:45:00,4,28155556,190637
OK,30,71,677,30,2014-10-01T17:50:00,6,28155974,190637
OK,31,68,677,31,2014-10-01T17:55:00,5,28156423,190637
OK,39,54,677,39,2014-10-01T18:00:00,3,28156871,190637
OK,29,73,677,29,2014-10-01T18:05:00,4,28157310,190637
OK,26,81,677,26,2014-10-01T18:10:00,3,28157740,190637
OK,31,68,677,31,2014-10-01T18:15:00,2,28158188,190637
OK,29,73,677,29,2014-10-01T18:20:00,5,28158632,190637
OK,29,73,677,29,2014-10-01T18:25:00,3,28159077,190637
OK,32,66,677,32,2014-10-01T18:35:00,0,28159859,190637
OK,29,73,677,29,2014-10-01T18:40:00,1,28160308,190637
OK,28,76,677,28,2014-10-01T18:45:00,2,28160757,190637
OK,32,66,677,32,2014-10-01T18:50:00,4,28161195,190637
OK,33,64,677,33,2014-10-01T18:55:00,4,28161644,190637
OK,28,76,677,28,2014-10-01T19:00:00,5,28162061,190637
OK,28,76,677,28,2014-10-01T19:05:00,5,28162510,190637
OK,37,57,677,37,2014-10-01T19:10:00,2,28162904,190637
OK,24,88,677,24,2014-10-01T19:15:00,4,28163343,190637
OK,25,85,677,25,2014-10-01T19:20:00,3,28163791,190637
OK,19,112,677,19,2014-10-01T19:25:00,3,28164240,190637
OK,22,96,677,22,2014-10-01T19:30:00,4,28164671,190637
OK,29,73,677,29,2014-10-01T19:35:00,3,28165120,190637
OK,29,73,677,29,2014-10-01T19:40:00,6,28165545,190637
OK,29,73,677,29,2014-10-01T19:45:00,4,28165993,190637
OK,26,81,677,26,2014-10-01T19:50:00,3,28166432,190637
OK,27,78,677,27,2014-10-01T19:55:00,2,28166796,190637
OK,15,142,677,15,2014-10-01T20:00:00,1,28167245,190637
OK,35,60,677,35,2014-10-01T20:05:00,3,28167674,190637
OK,24,88,677,24,2014-10-01T20:10:00,4,28168107,190637
OK,24,88,677,24,2014-10-01T20:15:00,1,28168556,190637
OK,31,68,677,31,2014-10-01T20:20:00,3,28169001,190637
OK,31,68,677,31,2014-10-01T20:25:00,3,28169450,190637
OK,32,66,677,32,2014-10-01T20:30:00,2,28169898,190637
OK,34,62,677,34,2014-10-01T20:35:00,0,28170324,190637
OK,27,78,677,27,2014-10-01T20:40:00,1,28170769,190637
OK,28,76,677,28,2014-10-01T20:45:00,1,28171217,190637
OK,28,76,677,28,2014-10-01T20:50:00,0,28171654,190637
OK,22,96,677,22,2014-10-01T20:55:00,0,28172100,190637
OK,29,73,677,29,2014-10-01T21:00:00,1,28172548,190637
OK,29,73,677,29,2014-10-01T21:05:00,1,28172994,190637
OK,25,85,677,25,2014-10-01T21:10:00,1,28173440,190637
OK,34,62,677,34,2014-10-01T21:15:00,2,28173889,190637
OK,43,49,677,43,2014-10-01T21:20:00,0,28174330,190637
OK,33,64,677,33,2014-10-01T21:25:00,1,28174779,190637
OK,54,39,677,54,2014-10-01T21:35:00,1,28175601,190637
OK,54,39,677,54,2014-10-01T21:40:00,0,28176050,190637
OK,54,39,677,54,2014-10-01T21:45:00,0,28176499,190637
OK,54,39,677,54,2014-10-01T21:50:00,0,28176948,190637
OK,54,39,677,54,2014-10-01T21:55:00,0,28177304,190637
OK,54,39,677,54,2014-10-01T22:00:00,0,28177744,190637
OK,54,39,677,54,2014-10-01T22:05:00,0,28178190,190637
OK,54,39,677,54,2014-10-01T22:10:00,0,28178639,190637
OK,67,31,677,67,2014-10-01T22:15:00,1,28179086,190637
OK,67,31,677,67,2014-10-01T22:20:00,1,28179520,190637
OK,67,31,677,67,2014-10-01T22:25:00,0,28179963,190637
OK,67,31,677,67,2014-10-01T22:30:00,0,28180410,190637
OK,27,78,677,27,2014-10-01T22:35:00,1,28180808,190637
OK,27,78,677,27,2014-10-01T22:40:00,1,28181257,190637
OK,26,81,677,26,2014-10-01T22:45:00,3,28181681,190637
OK,26,81,677,26,2014-10-01T22:50:00,3,28182129,190637
OK,27,78,677,27,2014-10-01T22:55:00,2,28182576,190637
OK,27,78,677,27,2014-10-01T23:00:00,0,28183025,190637
OK,27,78,677,27,2014-10-01T23:05:00,0,28183442,190637
OK,27,78,677,27,2014-10-01T23:10:00,0,28183875,190637
OK,27,78,677,27,2014-10-01T23:15:00,0,28184320,190637
OK,27,78,677,27,2014-10-01T23:20:00,0,28184769,190637
OK,27,78,677,27,2014-10-01T23:25:00,0,28185204,190637
OK,27,78,677,27,2014-10-01T23:30:00,0,28185652,190637
OK,27,78,677,27,2014-10-01T23:40:00,0,28186475,190637
OK,27,78,677,27,2014-10-01T23:45:00,0,28187315,190637
OK,27,78,677,27,2014-10-01T23:55:00,0,28187764,190637
OK,27,78,677,27,2014-10-02T00:00:00,0,28188213,190637
OK,27,78,677,27,2014-10-02T00:05:00,0,28188652,190637
OK,27,78,677,27,2014-10-02T00:10:00,0,28189090,190637
OK,27,78,677,27,2014-10-02T00:15:00,0,28189539,190637
OK,27,78,677,27,2014-10-02T00:20:00,0,28189961,190637
OK,27,78,677,27,2014-10-02T00:25:00,0,28190406,190637
OK,27,78,677,27,2014-10-02T00:30:00,0,28190763,190637
OK,27,78,677,27,2014-10-02T00:35:00,0,28191212,190637
OK,27,78,677,27,2014-10-02T00:45:00,0,28191967,190637
OK,27,78,677,27,2014-10-02T00:50:00,0,28192416,190637
OK,27,78,677,27,2014-10-02T00:55:00,0,28192849,190637
OK,27,78,677,27,2014-10-02T01:00:00,0,28193269,190637
OK,27,78,677,27,2014-10-02T01:05:00,0,28193660,190637
OK,27,78,677,27,2014-10-02T01:10:00,0,28194109,190637
OK,27,78,677,27,2014-10-02T01:15:00,0,28194558,190637
OK,27,78,677,27,2014-10-02T01:20:00,0,28194998,190637
OK,27,78,677,27,2014-10-02T01:25:00,0,28195243,190637
OK,27,78,677,27,2014-10-02T01:30:00,0,28195692,190637
OK,27,78,677,27,2014-10-02T01:35:00,0,28196141,190637
OK,27,78,677,27,2014-10-02T01:40:00,0,28196425,190637
OK,27,78,677,27,2014-10-02T01:45:00,0,28196874,190637
OK,27,78,677,27,2014-10-02T01:50:00,0,28197297,190637
OK,27,78,677,27,2014-10-02T01:55:00,0,28197746,190637
OK,27,78,677,27,2014-10-02T02:00:00,0,28198194,190637
OK,27,78,677,27,2014-10-02T02:05:00,0,28198642,190637
OK,27,78,677,27,2014-10-02T02:10:00,0,28199091,190637
OK,23,92,677,23,2014-10-02T02:15:00,0,28199463,190637
OK,23,92,677,23,2014-10-02T02:20:00,0,28199905,190637
OK,23,92,677,23,2014-10-02T02:25:00,0,28200347,190637
OK,23,92,677,23,2014-10-02T02:30:00,0,28200790,190637
OK,23,92,677,23,2014-10-02T02:35:00,0,28201239,190637
OK,30,71,677,30,2014-10-02T02:45:00,0,28201670,190637
OK,30,71,677,30,2014-10-02T02:50:00,0,28202119,190637
OK,30,71,677,30,2014-10-02T02:55:00,0,28202568,190637
OK,27,78,677,27,2014-10-02T03:00:00,2,28203010,190637
OK,31,68,677,31,2014-10-02T03:05:00,0,28203458,190637
OK,31,68,677,31,2014-10-02T03:15:00,0,28203893,190637
OK,37,57,677,37,2014-10-02T03:30:00,0,28204342,190637
OK,23,92,677,23,2014-10-02T03:35:00,3,28204791,190637
OK,23,92,677,23,2014-10-02T03:40:00,2,28205240,190637
OK,31,68,677,31,2014-10-02T03:45:00,2,28205668,190637
OK,31,68,677,31,2014-10-02T03:50:00,0,28206096,190637
OK,31,68,677,31,2014-10-02T03:55:00,0,28206498,190637
OK,38,56,677,38,2014-10-02T04:00:00,4,28206947,190637
OK,46,46,677,46,2014-10-02T04:05:00,1,28207396,190637
OK,28,76,677,28,2014-10-02T04:10:00,1,28207815,190637
OK,28,76,677,28,2014-10-02T04:15:00,0,28208264,190637
OK,32,66,677,32,2014-10-02T04:20:00,7,28208691,190637
OK,30,71,677,30,2014-10-02T04:25:00,4,28209140,190637
OK,29,73,677,29,2014-10-02T04:30:00,14,28209578,190637
OK,30,71,677,30,2014-10-02T04:35:00,6,28210027,190637
OK,27,78,677,27,2014-10-02T04:40:00,14,28210450,190637
OK,27,78,677,27,2014-10-02T04:45:00,5,28210899,190637
OK,27,78,677,27,2014-10-02T04:50:00,0,28211324,190637
OK,33,64,677,33,2014-10-02T04:55:00,18,28211768,190637
OK,53,40,677,53,2014-10-02T05:00:00,7,28212146,190637
OK,45,47,677,45,2014-10-02T05:05:00,10,28212595,190637
OK,48,44,677,48,2014-10-02T05:10:00,1,28213024,190637
OK,43,49,677,43,2014-10-02T05:15:00,10,28213473,190637
OK,48,44,677,48,2014-10-02T05:20:00,3,28213911,190637
OK,43,49,677,43,2014-10-02T05:25:00,25,28214360,190637
OK,48,44,677,48,2014-10-02T05:30:00,3,28214773,190637
OK,48,44,677,48,2014-10-02T05:35:00,0,28215222,190637
OK,45,47,677,45,2014-10-02T05:40:00,41,28215638,190637
OK,47,45,677,47,2014-10-02T05:45:00,15,28216087,190637
OK,48,44,677,48,2014-10-02T05:50:00,0,28216426,190637
OK,48,44,677,48,2014-10-02T05:55:00,0,28216866,190637
OK,47,45,677,47,2014-10-02T06:00:00,32,28217313,190637
OK,46,46,677,46,2014-10-02T06:05:00,22,28217762,190637
OK,42,50,677,42,2014-10-02T06:10:00,2,28218201,190637
OK,47,45,677,47,2014-10-02T06:15:00,29,28218650,190637
OK,47,45,677,47,2014-10-02T06:20:00,34,28219070,190637
OK,54,39,677,54,2014-10-02T06:25:00,29,28219519,190637
OK,51,41,677,51,2014-10-02T06:30:00,21,28219892,190637
OK,44,48,677,44,2014-10-02T06:35:00,20,28220341,190637
OK,46,46,677,46,2014-10-02T06:40:00,29,28220775,190637
OK,46,46,677,46,2014-10-02T06:45:00,25,28221224,190637
OK,43,49,677,43,2014-10-02T07:00:00,11,28221891,190637
OK,54,39,677,54,2014-10-02T07:05:00,13,28222036,190637
OK,36,59,677,36,2014-10-02T07:10:00,19,28222485,190637
OK,34,62,677,34,2014-10-02T07:15:00,9,28222934,190637
OK,28,76,677,28,2014-10-02T07:20:00,0,28223365,190637
OK,30,71,677,30,2014-10-02T07:25:00,13,28223800,190637
OK,30,71,677,30,2014-10-02T07:30:00,5,28224241,190637
OK,35,60,677,35,2014-10-02T07:35:00,15,28224603,190637
OK,39,54,677,39,2014-10-02T07:40:00,8,28225052,190637
OK,35,60,677,35,2014-10-02T07:45:00,0,28225463,190637
OK,31,68,677,31,2014-10-02T07:50:00,8,28225823,190637
OK,27,78,677,27,2014-10-02T07:55:00,8,28226272,190637
OK,32,66,677,32,2014-10-02T08:00:00,4,28226713,190637
OK,34,62,677,34,2014-10-02T08:05:00,7,28227162,190637
OK,24,88,677,24,2014-10-02T08:10:00,1,28227577,190637
OK,33,64,677,33,2014-10-02T08:15:00,6,28228026,190637
OK,33,64,677,33,2014-10-02T08:20:00,2,28228385,190637
OK,28,76,677,28,2014-10-02T08:25:00,13,28228834,190637
OK,48,44,677,48,2014-10-02T08:30:00,4,28229244,190637
OK,33,64,677,33,2014-10-02T08:35:00,7,28229693,190637
OK,33,64,677,33,2014-10-02T08:40:00,1,28230043,190637
OK,33,64,677,33,2014-10-02T08:45:00,0,28230492,190637
OK,29,73,677,29,2014-10-02T08:50:00,17,28230858,190637
OK,31,68,677,31,2014-10-02T08:55:00,4,28231305,190637
OK,36,59,677,36,2014-10-02T09:00:00,6,28231730,190637
OK,29,73,677,29,2014-10-02T09:05:00,0,28232175,190637
OK,30,71,677,30,2014-10-02T09:15:00,4,28232521,190637
OK,32,66,677,32,2014-10-02T09:20:00,3,28232970,190637
OK,28,76,677,28,2014-10-02T09:25:00,15,28233419,190637
OK,29,73,677,29,2014-10-02T09:30:00,8,28233843,190637
OK,68,31,677,68,2014-10-02T09:40:00,4,28234625,190637
OK,30,71,677,30,2014-10-02T09:45:00,14,28235074,190637
OK,26,81,677,26,2014-10-02T09:50:00,6,28235501,190637
OK,28,76,677,28,2014-10-02T09:55:00,0,28235950,190637
OK,29,73,677,29,2014-10-02T10:00:00,5,28236393,190637
OK,29,73,677,29,2014-10-02T10:05:00,0,28236840,190637
OK,33,64,677,33,2014-10-02T10:10:00,16,28237242,190637
OK,36,59,677,36,2014-10-02T10:15:00,17,28237690,190637
OK,38,56,677,38,2014-10-02T10:20:00,12,28238139,190637
OK,30,71,677,30,2014-10-02T10:25:00,5,28238586,190637
OK,30,71,677,30,2014-10-02T10:30:00,0,28239027,190637
OK,28,76,677,28,2014-10-02T10:35:00,12,28239476,190637
OK,27,78,677,27,2014-10-02T10:40:00,14,28239906,190637
OK,29,73,677,29,2014-10-02T10:45:00,10,28240355,190637
OK,32,66,677,32,2014-10-02T10:50:00,4,28240799,190637
OK,32,66,677,32,2014-10-02T10:55:00,12,28241248,190637
OK,30,71,677,30,2014-10-02T11:00:00,3,28241680,190637
OK,28,76,677,28,2014-10-02T11:05:00,0,28242128,190637
OK,27,78,677,27,2014-10-02T11:10:00,12,28242524,190637
OK,29,73,677,29,2014-10-02T11:15:00,11,28242973,190637
OK,33,64,677,33,2014-10-02T11:20:00,14,28243422,190637
OK,33,64,677,33,2014-10-02T11:25:00,8,28243747,190637
OK,33,64,677,33,2014-10-02T11:30:00,0,28244185,190637
OK,29,73,677,29,2014-10-02T11:35:00,12,28244614,190637
OK,29,73,677,29,2014-10-02T11:40:00,6,28245063,190637
OK,30,71,677,30,2014-10-02T11:45:00,0,28245512,190637
OK,34,62,677,34,2014-10-02T11:50:00,14,28245918,190637
OK,29,73,677,29,2014-10-02T11:55:00,7,28246367,190637
OK,38,56,677,38,2014-10-02T12:00:00,14,28246804,190637
OK,40,53,677,40,2014-10-02T12:05:00,10,28247252,190637
OK,52,40,677,52,2014-10-02T12:10:00,0,28247699,190637
OK,32,66,677,32,2014-10-02T12:15:00,6,28248129,190637
OK,34,62,677,34,2014-10-02T12:20:00,1,28248578,190637
OK,31,68,677,31,2014-10-02T12:25:00,7,28249025,190637
OK,34,62,677,34,2014-10-02T12:30:00,1,28249453,190637
OK,31,68,677,31,2014-10-02T12:35:00,7,28249897,190637
OK,29,73,677,29,2014-10-02T12:40:00,4,28250282,190637
OK,30,71,677,30,2014-10-02T12:45:00,10,28250714,190637
OK,34,62,677,34,2014-10-02T13:20:00,10,28251574,190637
OK,36,59,677,36,2014-10-02T13:30:00,15,28252039,190637
OK,38,56,677,38,2014-10-02T13:35:00,7,28252176,190637
OK,36,59,677,36,2014-10-02T13:40:00,0,28252623,190637
OK,39,54,677,39,2014-10-02T13:45:00,18,28253065,190637
OK,39,54,677,39,2014-10-02T13:50:00,15,28253482,190637
OK,46,46,677,46,2014-10-02T13:55:00,15,28253931,190637
OK,45,47,677,45,2014-10-02T14:10:00,13,28254662,190637
OK,44,48,677,44,2014-10-02T14:15:00,10,28254785,190637
OK,40,53,677,40,2014-10-02T14:20:00,4,28255234,190637
OK,40,53,677,40,2014-10-02T14:25:00,2,28255683,190637
OK,48,44,677,48,2014-10-02T14:30:00,18,28256111,190637
OK,48,44,677,48,2014-10-02T14:35:00,9,28256560,190637
OK,42,50,677,42,2014-10-02T14:40:00,8,28256988,190637
OK,50,42,677,50,2014-10-02T14:45:00,5,28257437,190637
OK,51,41,677,51,2014-10-02T14:50:00,14,28257878,190637
OK,57,37,677,57,2014-10-02T14:55:00,11,28258326,190637
OK,46,46,677,46,2014-10-02T15:00:00,14,28258759,190637
OK,40,53,677,40,2014-10-02T15:05:00,8,28259205,190637
OK,39,54,677,39,2014-10-02T15:10:00,13,28259653,190637
OK,48,44,677,48,2014-10-02T15:15:00,13,28260101,190637
OK,46,46,677,46,2014-10-02T15:20:00,5,28260534,190637
OK,44,48,677,44,2014-10-02T15:25:00,12,28260982,190637
OK,44,48,677,44,2014-10-02T15:35:00,8,28261787,190637
OK,44,48,677,44,2014-10-02T15:40:00,2,28262235,190637
OK,48,44,677,48,2014-10-02T15:45:00,5,28262682,190637
OK,52,40,677,52,2014-10-02T15:50:00,4,28263128,190637